Lapse_Rate
7.3 7.0 6.7 6.5 6.2 5.5 6.1 7.2 7.9 8.0 8.5 8.5 8.6 8.1 8.7 7.9 8.3 8.3 8.4 8.3 8.3 8.3 8.3 8.0 7.8 7.5 7.3 7.1 7.1 7.0 7.0 7.0 7.0 7.0 6.9 6.8 6.6 6.5 6.4 6.3 6.2 6.2 6.2 6.2 6.1 5.9 5.9 5.8 5.8
7.0 6.9 6.6 6.2 5.7 5.4 6.6 7.9 8.2 8.4 8.6 8.4 8.4 8.3 7.8 7.9 8.5 8.5 8.5 8.4 8.4 8.3 8.3 8.3 8.2 7.9 7.4 7.2 7.3 7.2 7.1 7.1 7.1 7.1 7.2 7.1 7.1 7.0 6.9 6.7 6.5 6.4 6.3 6.3 6.2 6.1 6.1 6.1 6.0
6.6 6.4 6.1 5.7 5.3 5.6 6.9 8.4 8.5 8.3 8.4 8.5 8.0 8.1 7.7 8.0 8.5 8.4 8.6 8.4 8.5 8.2 8.0 8.0 8.0 8.1 7.5 7.2 7.2 7.3 7.4 7.5 7.6 7.7 7.7 7.5 7.2 7.0 6.9 6.8 6.8 6.7 6.5 6.3 6.3 6.2 6.1 6.0 6.0
6.3 6.0 5.6 5.5 6.0 7.2 7.4 8.3 8.3 8.2 8.4 8.4 7.9 7.8 7.4 7.3 7.7 8.7 8.4 8.2 8.0 8.3 8.1 8.0 7.7 7.9 7.5 7.5 7.4 7.5 7.6 7.7 7.7 7.7 7.6 7.4 7.2 7.1 7.0 6.8 6.7 6.7 6.7 6.6 6.6 6.5 6.4 6.1 6.0
6.0 5.8 5.5 5.5 6.5 7.2 7.1 7.6 7.8 7.9 8.4 8.6 8.0 8.1 7.8 7.7 7.8 7.8 7.6 7.7 8.0 8.0 8.2 7.8 7.8 7.7 7.6 7.7 7.6 7.5 7.8 7.9 8.0 8.0 7.9 7.7 7.5 7.4 7.2 7.1 7.0 6.9 6.8 6.6 6.4 6.3 6.3 6.3 6.3
5.7 5.6 5.4 5.4 7.1 7.4 7.2 7.4 7.6 7.7 8.1 8.7 8.0 8.0 8.0 8.1 8.2 8.1 7.9 7.9 7.9 7.6 7.9 8.1 7.8 7.6 7.6 7.7 7.8 7.7 7.8 8.0 8.1 8.0 7.8 7.7 7.5 7.3 7.2 7.1 7.0 6.8 6.7 6.5 6.3 6.3 6.3 6.3 6.2
5.6 5.5 5.6 6.1 6.5 7.1 7.7 7.4 7.0 7.5 7.5 8.1 7.8 7.6 7.5 7.7 8.1 7.9 7.6 7.5 7.4 7.5 7.7 7.9 7.9 7.6 7.6 7.7 7.8 7.7 7.8 7.9 7.9 7.9 7.8 7.8 7.7 7.5 7.4 7.1 7.0 6.8 6.6 6.5 6.4 6.3 6.2 6.2 6.2
5.5 5.1 5.2 5.6 6.3 6.6 7.6 7.4 7.1 6.6 7.3 7.4 7.3 7.2 7.4 7.5 7.8 7.8 7.6 7.6 7.7 7.9 7.8 7.8 7.8 7.7 7.7 7.7 7.7 7.7 7.6 7.6 7.8 7.8 7.8 7.7 7.6 7.5 7.4 7.3 7.2 7.1 6.9 6.9 6.8 6.7 6.7 6.7 6.7
5.2 4.6 4.8 5.5 6.2 6.8 7.4 7.1 6.8 6.6 6.4 6.8 7.5 7.2 7.6 7.8 7.6 7.7 7.5 7.5 8.0 8.1 8.2 8.0 7.8 7.7 7.6 7.7 7.7 7.6 7.6 7.7 7.7 7.6 7.7 7.7 7.6 7.5 7.4 7.4 7.3 7.3 7.4 7.4 7.4 7.4 7.4 7.3 7.2
5.3 4.8 5.1 6.3 6.8 6.6 6.6 6.3 6.6 6.3 6.3 6.8 7.4 7.3 7.5 7.6 7.6 7.6 7.5 7.3 7.3 7.9 8.1 7.9 7.4 7.4 7.8 7.7 7.6 7.6 7.7 7.6 7.5 7.5 7.7 7.7 7.6 7.6 7.5 7.4 7.4 7.3 7.3 7.3 7.4 7.4 7.3 7.3 7.3
5.3 5.1 6.3 6.7 6.4 6.5 6.7 6.3 6.7 6.3 6.4 6.9 7.1 7.1 7.5 7.7 7.7 7.6 7.6 7.5 7.2 7.5 7.6 7.3 7.1 7.2 7.1 7.2 7.3 7.5 7.6 7.5 7.6 7.6 7.6 7.7 7.7 7.6 7.4 7.2 7.2 7.1 7.1 7.0 6.9 6.8 6.7 6.7 6.6
5.5 5.7 6.3 6.6 6.4 6.4 6.7 6.7 6.5 6.2 6.5 7.0 7.0 6.6 6.6 7.0 7.5 7.6 7.3 7.0 7.1 7.8 7.6 7.4 7.0 6.9 7.0 6.9 6.8 6.8 7.1 7.2 7.4 7.7 7.6 7.6 7.8 7.6 7.1 6.9 6.8 6.9 6.8 6.8 6.8 6.4 6.3 6.3 6.2
6.2 5.8 5.9 6.2 6.2 6.5 6.8 6.5 6.6 6.6 6.7 7.1 6.9 6.7 6.7 6.7 7.6 7.7 7.0 6.5 6.7 7.2 7.2 7.4 7.5 7.4 7.5 7.4 7.2 7.0 6.8 7.1 7.0 7.0 7.5 7.6 7.8 7.5 7.0 6.9 6.9 7.0 6.9 6.5 6.2 6.3 6.3 6.3 6.3
5.9 6.1 6.0 5.8 6.0 6.2 6.0 6.5 6.2 7.3 7.0 7.2 7.1 6.9 7.0 7.1 7.3 7.5 6.9 6.6 7.0 6.9 7.1 7.1 7.7 7.4 7.3 7.6 7.5 7.2 6.8 7.1 7.6 7.4 7.3 7.3 7.7 7.2 7.1 6.7 6.5 6.6 6.4 6.3 6.2 6.2 6.2 6.3 6.3
5.5 5.1 5.6 6.0 6.0 5.6 5.8 6.2 6.4 7.5 7.0 7.4 7.5 7.1 6.8 6.8 6.7 6.7 7.0 7.0 7.1 6.9 7.0 7.2 7.4 7.4 7.0 7.4 7.4 7.3 7.2 7.2 7.5 7.4 7.1 6.9 7.3 7.1 6.8 6.6 6.4 6.5 6.6 6.5 6.3 6.2 6.1 6.1 6.4
5.0 4.8 5.3 6.6 6.1 6.0 6.0 6.0 7.1 7.4 7.2 7.2 7.7 7.6 7.2 7.1 6.9 6.5 6.8 7.2 7.2 7.0 7.0 7.0 7.1 7.2 7.2 7.4 7.4 7.3 6.9 7.4 7.2 7.4 6.9 7.6 7.2 7.0 6.6 6.8 6.9 7.0 6.8 6.5 6.3 6.3 6.2 6.2 6.4
5.2 5.1 5.1 5.7 6.4 5.9 5.8 6.2 6.5 7.2 6.9 7.3 7.5 7.7 7.5 7.3 7.3 7.2 7.2 7.2 7.2 7.2 7.2 6.9 7.1 7.2 7.0 7.1 7.4 7.3 7.2 7.1 6.9 6.7 7.1 7.6 7.3 6.7 6.6 6.8 6.9 6.8 6.6 6.2 6.1 6.0 6.1 6.3 6.3
4.8 4.6 4.7 4.9 5.9 6.2 6.1 6.1 6.2 7.1 7.3 7.3 7.7 7.8 7.7 7.4 7.3 7.5 7.5 7.6 7.4 7.4 7.2 6.9 6.7 6.8 6.9 7.0 7.2 7.0 6.8 6.8 6.9 6.7 6.9 7.7 7.2 6.7 6.6 6.5 6.6 6.4 6.0 5.9 5.9 5.8 5.7 6.0 6.2
5.1 5.0 4.6 4.8 5.5 5.5 5.6 5.7 5.9 6.3 7.4 7.1 7.5 7.8 8.0 7.6 7.3 7.3 7.6 7.5 7.3 7.1 7.0 6.9 6.8 7.1 6.8 7.0 7.0 7.2 7.4 7.2 6.9 6.4 7.0 7.4 7.4 6.8 6.3 6.3 6.4 5.9 5.6 5.7 5.6 5.4 5.6 5.6 5.8
5.4 5.2 5.1 5.0 5.3 5.2 5.3 5.8 5.8 6.1 6.8 7.1 7.3 7.4 7.8 7.7 7.4 7.3 7.1 7.3 7.5 7.4 7.2 7.1 7.0 7.0 7.1 7.1 7.0 7.0 7.1 6.9 6.5 6.4 6.9 6.9 7.3 6.9 6.3 6.4 6.0 5.9 5.7 5.5 5.3 5.4 5.5 5.7 5.9
6.0 5.6 5.3 5.3 5.4 5.5 5.0 5.4 6.2 6.2 6.7 6.9 7.0 6.9 7.3 7.6 7.3 7.3 7.0 7.0 7.4 7.3 7.3 7.3 7.1 6.9 7.0 6.8 6.8 6.9 7.0 6.3 6.3 6.6 7.2 7.2 6.3 6.6 6.3 6.0 6.0 6.0 5.7 5.6 5.4 5.4 5.5 5.4 5.7
6.6 5.8 5.5 5.5 5.2 5.0 6.2 4.8 6.1 6.3 6.7 6.9 7.2 7.1 6.9 7.2 7.2 7.3 7.3 7.4 7.1 7.1 7.2 7.2 7.1 6.8 6.9 7.0 6.6 6.8 6.7 6.6 6.9 6.8 6.7 6.4 6.4 6.3 6.2 6.1 6.0 5.9 5.6 5.4 5.4 5.3 5.3 5.1 5.3
7.3 6.7 6.0 5.5 5.1 5.2 5.6 5.4 4.9 5.8 6.6 7.1 7.0 7.3 7.2 7.2 7.3 7.2 7.2 7.2 7.3 7.3 7.1 7.0 7.0 7.0 6.9 6.9 6.7 6.6 6.6 6.4 6.3 6.7 6.7 6.4 6.4 6.3 6.3 6.1 5.9 5.7 5.6 5.5 5.3 5.1 4.9 4.9 5.0
7.9 7.5 6.7 5.9 5.5 4.9 5.1 6.0 5.1 5.4 6.4 7.2 7.3 7.2 7.2 7.2 7.3 7.2 7.3 7.3 7.3 7.3 7.2 7.0 6.9 6.9 6.9 6.7 6.6 6.5 6.5 6.5 6.3 6.4 6.4 6.3 6.4 6.4 6.2 5.8 5.8 5.8 5.7 5.4 5.3 5.2 4.9 4.7 4.6
7.2 7.6 6.7 6.2 5.6 4.9 5.6 6.1 4.7 6.2 6.3 7.0 7.5 7.3 7.1 7.1 7.4 7.4 7.4 7.3 7.2 7.2 7.2 7.0 6.8 6.8 6.9 6.8 6.7 6.7 6.8 6.4 6.1 6.2 6.3 6.4 6.3 6.3 5.9 5.8 6.1 6.2 6.0 5.5 5.2 5.1 4.9 4.8 4.8
7.8 7.4 6.9 6.1 6.7 5.7 6.3 7.1 5.6 6.0 6.2 6.4 7.1 7.3 7.1 7.2 7.4 7.5 7.5 7.4 7.4 7.4 7.3 7.1 6.8 6.8 6.9 7.0 6.8 6.8 6.3 6.2 6.1 6.4 6.6 6.5 6.4 6.4 6.1 6.2 6.4 6.3 6.1 5.7 5.3 5.1 5.2 4.9 5.0
6.9 6.8 7.7 7.5 7.1 6.1 6.5 7.3 5.8 6.0 6.0 6.5 6.8 7.1 6.8 6.9 7.1 7.7 7.7 7.6 7.6 7.6 7.3 7.2 6.9 7.0 7.0 7.0 7.0 6.7 6.4 6.4 6.5 6.4 6.4 6.4 6.5 6.4 6.1 6.3 6.4 6.4 6.0 5.8 5.7 5.5 5.3 5.1 5.1
6.8 6.9 6.7 6.7 5.7 7.0 6.2 7.2 6.0 5.9 6.2 6.6 6.8 7.0 6.8 6.9 7.2 7.7 7.9 7.7 7.6 7.7 7.6 7.3 7.0 7.2 7.2 7.2 6.9 6.5 6.6 6.6 6.7 6.5 6.4 6.6 6.5 6.4 6.6 6.6 6.5 6.2 6.1 6.0 6.0 5.8 5.5 5.5 5.4
6.7 6.4 6.4 6.6 7.1 5.7 6.0 6.9 7.2 6.7 6.4 6.5 6.8 6.6 6.8 7.0 7.3 7.8 8.1 7.7 7.8 7.7 7.6 7.5 7.2 7.3 7.2 7.2 6.8 6.7 6.7 7.0 6.8 6.6 6.6 6.6 6.5 6.7 6.8 6.5 6.2 6.3 6.4 6.1 5.9 5.7 5.6 5.6 5.5
6.4 6.3 6.4 6.4 6.1 6.7 7.0 7.0 7.5 6.5 6.5 6.3 6.5 6.6 6.7 7.0 7.7 7.5 7.9 7.6 7.8 7.9 7.7 7.3 7.3 7.5 7.4 7.1 6.9 6.9 7.0 6.7 6.5 6.3 6.6 6.8 6.9 7.0 6.7 6.4 6.3 6.3 6.3 6.2 6.0 5.5 5.4 5.5 5.6
Wind_Speed
4 3 1 3 2 4 5 8 3 4 7 1 6 3 8 3 9 6 6 6 15 19 17 22 22 20 22 23 22 22 23 23 23 23 22 21 20 19 18 17 16 15 15 14 13 11 11 10 10
1 2 3 2 4 3 7 5 15 7 8 10 7 6 5 6 3 3 9 7 17 15 14 19 24 22 21 21 22 22 21 22 22 22 22 20 20 19 18 16 15 14 13 12 11 10 9 9 10
2 2 3 4 5 10 10 8 2 4 8 3 7 3 3 5 1 8 4 14 15 13 14 18 21 22 22 22 20 21 21 21 20 20 19 18 17 16 15 15 14 13 11 10 9 8 7 8 8
3 3 3 3 13 10 10 2 5 4 5 5 2 8 4 1 2 7 15 18 16 13 14 22 22 22 21 23 22 21 21 22 21 20 19 18 17 16 15 13 11 11 10 9 8 8 6 6 6
3 3 2 5 12 7 5 7 3 3 5 2 4 7 5 3 10 16 18 19 20 13 13 19 23 23 22 22 22 20 20 20 20 20 19 17 15 14 14 13 12 11 9 7 6 5 5 4 4
3 3 1 12 21 2 7 13 6 6 5 7 6 5 6 6 14 11 11 18 19 19 15 18 23 23 22 21 20 20 20 20 19 19 17 17 15 13 12 11 10 9 8 8 7 6 5 4 4
6 4 6 4 5 6 15 8 7 4 4 9 5 4 4 1 8 10 9 7 13 13 14 15 17 20 22 20 19 19 19 18 17 17 16 16 14 13 12 11 10 9 8 7 5 5 4 3 3
5 4 4 6 12 10 7 6 4 9 8 3 8 6 8 5 12 12 12 9 8 11 14 15 13 14 14 15 18 17 17 17 16 16 15 14 14 14 13 12 11 10 9 9 9 8 7 6 5
5 3 6 8 9 14 2 4 3 2 5 3 5 4 12 22 17 14 13 10 10 11 11 11 12 10 12 12 14 15 17 16 16 15 15 14 10 12 12 12 13 14 13 13 11 10 9 8 7
5 6 12 7 17 4 5 4 2 4 6 6 7 10 14 23 20 19 16 15 14 17 13 11 11 10 12 12 13 11 14 11 10 11 12 11 11 11 10 10 12 11 10 9 8 8 7 6 5
6 15 15 5 7 8 4 7 4 3 9 9 6 9 2 22 19 18 16 18 14 18 13 13 13 13 14 10 9 9 10 10 9 11 12 11 8 8 7 5 6 7 7 4 6 5 5 5 6
6 11 19 5 14 6 4 5 3 9 13 6 6 1 4 13 19 17 16 16 17 17 16 16 16 15 13 9 8 9 7 9 6 10 14 9 4 4 4 4 7 6 6 3 5 3 4 5 6
7 3 7 19 11 8 9 14 7 18 11 13 14 6 11 19 19 14 14 13 16 17 18 17 16 16 15 14 10 9 9 7 9 9 11 11 4 4 4 4 5 6 7 4 4 4 3 3 3
4 10 19 14 9 5 14 18 6 27 11 12 8 9 7 18 18 12 14 14 17 16 18 18 17 16 15 12 13 10 7 9 12 11 11 12 9 4 4 4 3 3 6 8 5 2 3 2 3
8 11 12 13 4 8 6 18 30 16 15 16 13 8 6 10 7 16 22 21 21 18 18 17 16 13 14 13 11 8 8 9 7 7 11 13 12 8 4 4 4 4 7 5 2 3 3 3 2
3 3 4 9 11 8 12 27 16 12 10 12 14 8 7 8 17 14 19 20 17 15 18 16 12 11 13 13 11 10 9 7 5 8 13 13 13 9 5 3 3 4 4 5 3 3 3 2 1
4 5 7 6 4 7 16 21 4 8 9 11 11 8 7 7 5 11 18 18 19 18 17 14 13 14 13 10 8 7 7 7 4 7 10 14 12 12 5 4 4 7 3 3 3 3 2 0 2
5 4 2 4 2 6 13 23 12 10 7 12 9 10 7 10 10 14 19 17 17 16 16 16 12 12 8 6 6 3 4 3 4 7 7 13 12 11 7 4 5 6 4 3 2 2 3 1 1
10 12 7 5 9 9 6 14 9 7 11 11 9 8 7 10 8 10 14 16 17 12 14 14 13 11 9 8 8 7 5 4 3 4 7 9 11 12 8 5 5 3 3 4 5 2 2 1 2
9 10 13 5 6 6 9 17 9 4 9 10 14 9 10 7 7 13 13 14 18 20 19 15 14 12 11 8 4 3 4 3 3 2 4 8 11 12 7 7 5 5 4 5 4 3 2 2 2
9 13 8 6 7 15 9 18 14 6 10 8 8 7 9 14 14 15 20 18 18 19 20 19 17 14 11 7 6 5 5 4 3 3 3 5 9 9 8 6 5 5 4 3 2 3 4 3 2
6 4 1 5 5 5 1 7 12 6 10 8 10 7 10 13 10 15 19 19 19 20 20 20 16 15 9 8 10 16 10 5 3 5 4 4 8 8 9 7 5 5 4 4 2 2 2 2 3
9 7 6 4 7 3 6 4 5 8 7 11 10 9 8 9 15 17 19 21 22 19 18 17 15 13 11 10 10 10 9 6 5 6 9 7 6 7 7 7 5 5 4 3 4 3 5 2 2
5 5 2 4 3 8 7 7 17 11 11 8 7 8 5 8 11 17 21 20 19 16 15 14 16 14 9 11 8 10 14 13 10 8 8 5 4 4 6 6 5 5 5 4 3 4 6 4 3
4 6 2 2 4 10 9 9 21 3 5 12 11 7 2 9 13 16 18 17 16 18 17 13 14 12 9 10 9 8 11 12 14 11 9 9 5 4 5 6 5 4 5 5 4 5 4 2 3
7 8 4 6 5 11 9 8 16 13 16 18 18 17 5 8 12 17 19 20 20 20 19 17 14 12 12 11 8 9 10 6 7 10 8 7 6 6 6 6 7 6 6 5 4 3 3 4 4
4 5 9 4 5 3 4 3 23 22 16 14 18 11 7 10 9 14 16 20 21 20 20 20 16 13 13 13 12 10 10 10 10 12 10 8 6 6 8 8 8 7 7 6 6 5 6 5 5
12 4 2 3 5 7 5 4 11 5 19 22 14 7 6 8 10 10 17 21 21 21 18 15 15 17 14 14 11 11 12 12 12 11 11 10 8 8 9 9 9 9 8 8 8 6 6 6 4
2 4 6 4 5 5 3 5 18 18 9 11 15 5 8 8 11 13 15 16 19 18 17 15 16 15 15 13 13 14 13 14 13 12 11 10 9 10 11 10 10 9 9 8 7 6 7 6 5
3 3 2 3 5 5 3 12 5 3 6 5 6 6 8 8 11 7 15 15 18 18 19 17 16 16 13 13 14 14 14 14 15 13 12 12 12 12 11 10 11 9 9 8 9 7 6 5 5
Wind_Direction
275 276 139 53 62 64 244 245 220 248 314 104 310 303 200 241 169 206 320 180 133 146 151 149 148 145 136 133 131 128 126 125 123 123 122 121 122 123 123 121 120 121 124 125 124 124 122 119 114
231 131 44 90 127 178 247 210 236 197 250 348 345 319 299 224 215 99 109 137 145 141 146 150 149 145 138 134 131 128 128 128 128 126 126 128 129 129 128 127 125 125 126 126 127 129 126 122 120
177 79 108 154 182 213 239 207 96 217 257 269 325 244 313 280 71 144 113 137 128 135 142 148 145 140 137 133 131 131 133 131 128 125 126 127 126 123 122 126 127 127 125 122 120 118 116 117 119
130 24 19 162 228 250 234 245 122 322 303 251 214 298 284 87 207 135 132 130 124 136 142 146 142 139 140 139 139 138 138 135 134 131 131 131 130 129 125 124 123 126 126 127 126 126 126 123 117
52 67 208 234 246 250 251 272 260 245 270 157 4 272 259 53 114 143 146 148 141 143 144 145 144 140 143 144 142 140 139 138 137 136 136 137 134 131 130 131 130 131 129 125 124 126 129 131 130
84 109 166 231 236 201 247 249 263 220 248 295 259 236 250 104 136 153 154 155 152 145 146 147 143 145 146 145 144 144 144 143 141 139 140 139 137 136 132 128 129 133 140 146 153 160 169 171 167
153 133 222 237 252 271 247 196 231 241 222 255 265 230 270 243 138 135 130 131 134 131 136 145 147 150 145 144 146 148 145 139 137 138 141 140 143 137 135 139 146 152 156 159 172 190 198 206 221
139 136 237 230 236 262 247 159 194 176 247 240 188 238 249 201 139 125 117 110 114 125 138 144 146 143 136 141 146 142 136 133 133 136 143 147 151 155 159 161 163 168 176 180 194 202 210 221 233
142 185 222 222 200 221 84 206 285 239 227 326 202 234 234 131 131 127 118 118 121 131 133 135 144 132 127 124 142 135 137 131 137 143 149 154 165 171 174 178 182 186 190 193 200 205 215 227 240
180 196 216 211 233 269 248 267 302 304 307 294 302 348 143 140 148 151 153 155 154 153 139 140 137 139 147 145 137 119 139 136 142 146 153 164 175 185 189 196 201 204 206 215 218 226 236 257 295
208 233 228 219 231 244 218 273 205 253 278 235 262 20 223 154 162 161 164 171 160 152 149 143 140 141 147 147 139 144 148 159 153 154 164 168 178 192 207 215 233 225 223 234 254 282 314 308 298
241 232 239 253 254 277 270 270 212 215 244 244 263 233 223 209 170 166 165 165 151 158 156 153 151 150 152 151 150 161 158 168 167 171 171 169 174 193 218 206 223 219 216 194 251 249 254 264 275
240 265 249 241 252 247 289 265 265 265 266 282 283 270 234 196 185 171 167 146 151 162 163 165 160 156 155 156 161 162 165 168 168 181 178 177 175 191 205 219 219 215 202 208 234 223 224 227 251
245 214 250 266 248 239 246 270 267 260 249 252 247 255 243 188 202 154 157 158 168 163 168 169 170 163 160 161 161 164 170 184 164 173 183 194 186 193 216 207 217 234 208 212 241 259 222 221 174
267 280 276 243 217 240 201 270 244 264 273 285 275 259 212 198 176 181 168 170 173 178 169 174 170 167 162 154 162 162 168 170 173 172 174 194 199 202 196 209 193 218 237 196 154 68 92 90 32
301 246 219 265 187 215 163 257 269 226 204 240 253 228 197 196 196 181 176 174 173 166 172 172 174 164 161 161 167 165 164 167 170 171 186 189 205 194 200 185 165 148 149 137 139 114 89 77 315
234 244 226 292 212 201 194 250 196 182 194 227 240 230 179 186 161 190 175 171 172 169 165 171 172 170 171 165 142 151 178 158 160 170 187 185 190 190 167 144 131 139 129 125 123 82 92 166 316
219 258 235 208 294 201 224 255 267 284 225 227 228 247 176 183 198 180 176 169 172 169 173 177 173 167 149 134 113 146 174 161 157 190 202 177 175 148 131 122 136 135 122 119 91 93 48 69 295
293 288 275 304 320 337 263 273 267 248 262 237 236 231 199 196 196 170 174 171 166 169 172 179 166 171 152 152 158 184 167 170 179 197 199 170 139 133 143 152 131 135 140 140 129 124 125 28 348
247 265 277 288 266 296 300 289 283 268 256 243 233 194 214 172 164 163 164 171 174 173 183 181 181 177 171 165 168 140 129 123 114 120 141 148 145 150 152 143 143 128 115 120 144 156 115 85 27
237 245 257 259 284 278 277 284 269 241 237 274 256 195 190 202 170 170 171 175 179 180 181 184 182 180 181 148 121 99 99 89 136 125 134 157 155 133 117 121 126 121 131 157 157 136 126 138 62
224 240 297 307 272 259 43 281 262 178 229 234 261 230 200 208 171 170 173 176 182 186 187 183 179 179 169 149 160 162 167 156 118 156 136 126 106 107 116 123 122 130 120 116 90 78 89 90 77
239 216 231 265 262 9 293 277 256 162 232 251 248 255 217 193 176 174 180 179 188 185 183 183 181 176 169 158 166 160 132 116 121 129 123 109 97 100 112 114 113 100 94 104 120 90 73 65 111
213 163 145 181 132 248 202 208 268 222 229 271 261 250 230 210 185 185 185 182 188 184 182 176 178 178 144 145 148 160 140 144 140 140 116 125 102 99 89 95 98 105 113 105 100 82 73 89 92
83 110 257 268 194 248 162 213 249 277 250 234 277 290 290 208 192 190 183 183 181 176 178 176 182 167 150 146 145 155 146 153 147 146 143 135 112 103 102 106 103 89 86 83 78 81 86 80 69
186 160 180 199 227 252 188 214 248 245 268 263 277 278 284 221 209 199 184 181 179 178 178 174 168 159 157 165 147 136 135 128 134 131 120 107 120 114 107 95 97 97 90 76 72 68 56 60 45
235 194 206 270 213 303 254 268 249 247 259 268 259 288 289 234 213 207 187 182 178 180 178 175 161 156 152 149 146 129 116 130 122 112 109 111 112 102 100 95 94 80 69 67 67 57 50 55 44
201 148 95 170 201 239 242 209 238 183 231 243 261 280 326 271 231 196 193 185 179 178 174 167 159 159 145 143 133 126 125 113 110 107 107 107 98 96 89 78 71 68 66 63 65 53 39 53 25
125 211 212 184 167 183 225 229 231 235 229 236 238 246 253 261 249 203 188 193 169 163 156 152 149 139 132 123 122 126 120 113 110 109 104 96 86 83 80 80 78 71 66 52 59 54 34 37 12
265 211 223 215 229 240 190 249 264 84 157 200 237 263 254 240 245 206 161 161 154 152 146 147 139 131 126 119 116 114 111 111 105 102 96 90 88 78 84 80 75 67 59 49 44 35 13 15 13